TimePDT,TemperatureF,Dew PointF,Humidity,Sea Level PressureIn,VisibilityMPH,Wind Direction,Wind SpeedMPH,Gust SpeedMPH,PrecipitationIn,Events,Conditions,WindDirDegrees,DateUTC
12:53 AM,71.1,60.1,68,29.80,10.0,Calm,Calm,-,N/A,,Clear,0,2013-09-11 07:53:00
1:53 AM,70.0,60.1,71,29.80,10.0,WSW,3.5,-,N/A,,Clear,240,2013-09-11 08:53:00
2:53 AM,66.9,60.1,79,29.81,10.0,Calm,Calm,-,N/A,,Clear,0,2013-09-11 09:53:00
3:53 AM,66.0,59.0,78,29.83,10.0,Calm,Calm,-,N/A,,Clear,0,2013-09-11 10:53:00
4:53 AM,64.9,59.0,81,29.84,10.0,Calm,Calm,-,N/A,,Clear,0,2013-09-11 11:53:00
5:53 AM,64.0,59.0,84,29.86,10.0,Calm,Calm,-,N/A,,Clear,0,2013-09-11 12:53:00
6:53 AM,63.0,57.9,84,29.88,10.0,Calm,Calm,-,N/A,,Clear,0,2013-09-11 13:53:00
7:53 AM,64.9,57.9,78,29.90,10.0,Calm,Calm,-,N/A,,Clear,0,2013-09-11 14:53:00
8:53 AM,68.0,59.0,73,29.91,10.0,Calm,Calm,-,N/A,,Clear,0,2013-09-11 15:53:00
9:53 AM,72.0,60.1,66,29.91,10.0,Calm,Calm,-,N/A,,Clear,0,2013-09-11 16:53:00
10:53 AM,77.0,60.1,56,29.90,10.0,SSW,4.6,-,N/A,,Clear,210,2013-09-11 17:53:00
11:53 AM,81.0,60.1,49,29.88,10.0,Calm,Calm,-,N/A,,Clear,0,2013-09-11 18:53:00
12:53 PM,87.1,60.1,40,29.86,10.0,Calm,Calm,-,N/A,,Clear,0,2013-09-11 19:53:00
1:53 PM,91.9,57.9,32,29.85,10.0,Calm,Calm,-,N/A,,Clear,0,2013-09-11 20:53:00
2:53 PM,95.0,55.9,27,29.83,10.0,NNE,9.2,-,N/A,,Clear,20,2013-09-11 21:53:00
3:53 PM,95.0,57.9,29,29.83,10.0,NNW,9.2,-,N/A,,Clear,330,2013-09-11 22:53:00
4:53 PM,93.0,59.0,32,29.84,10.0,NW,9.2,17.3,N/A,,Clear,320,2013-09-11 23:53:00
5:53 PM,90.0,57.0,33,29.85,10.0,NW,10.4,-,N/A,,Clear,320,2013-09-12 00:53:00
6:53 PM,84.9,57.0,38,29.87,10.0,NNW,11.5,-,N/A,,Clear,330,2013-09-12 01:53:00
7:53 PM,80.1,55.9,43,29.90,10.0,North,12.7,-,N/A,,Clear,10,2013-09-12 02:53:00
8:53 PM,73.9,57.0,55,29.93,10.0,North,8.1,-,N/A,,Clear,360,2013-09-12 03:53:00
9:53 PM,70.0,55.9,61,29.95,10.0,North,9.2,-,N/A,,Clear,360,2013-09-12 04:53:00
10:53 PM,66.9,57.0,70,29.96,10.0,North,8.1,-,N/A,,Clear,360,2013-09-12 05:53:00
11:53 PM,64.9,55.9,73,29.97,10.0,NNW,9.2,-,N/A,,Clear,340,2013-09-12 06:53:00